Weather History for Big Bear City, CA

Change the Weather History Date:

Thursday, August 29, 2013

  Actual Average (KBUO) Record (KBUO)
Temperature  
Mean Temperature 58 °F -  
Max Temperature 69 °F 90 °F 107 °F (1996)
Min Temperature 48 °F 61 °F 59 °F (2001)
Degree Days  
Heating Degree Days 6    
Growing Degree Days 8 (Base 50)    
Moisture  
Dew Point 51 °F    
Average Humidity 75    
Maximum Humidity 94    
Minimum Humidity 53    
Precipitation  
Precipitation 0.13 in - - ()
Sea Level Pressure  
Sea Level Pressure 30.34 in    
Wind  
Wind Speed 1 mph (NW)    
Max Wind Speed 10 mph    
Max Gust Speed 23 mph    
Visibility 10 miles    
Events Rain    
Averages and records for this station are not official NWS values.
T = Trace of Precipitation, MM = Missing Value Source: NWS Daily Summary

Daily Weather History Graph

Daily Weather History Graph

Search for Another Location

Airport:

Trip Planner

Search our weather history database for the weather conditions in past years. The results will help you decide how hot, cold, wet, or windy it might be!

Date:

Astronomy

Aug. 29, 2013 Rise Set
Actual Time 6:18 AM PDT 7:16 PM PDT
Civil Twilight 5:53 AM PDT 7:42 PM PDT
Nautical Twilight 5:22 AM PDT 8:13 PM PDT
Astronomical Twilight 4:51 AM PDT 8:44 PM PDT
Moon 12:21 AM PDT (8/29) 2:41 PM PDT (8/29)
Length of Visible Light 13h 49m
Length of Day
12h 58m
Last Quarter, 37% of the Moon is Illuminated
Aug 29
Last Quarter
Sep 5
New
Sep 12
First Quarter
Sep 19
Full
Sep 26
Last Quarter

Hourly Weather History & Observations

Time (PDT) Temp. Dew Point Humidity Pressure Visibility Wind Dir Wind Speed Gust Speed Precip Events Conditions
12:15 AM 53.6 °F 46.4 °F 77% 30.31 in 10.0 mi Calm Calm - N/A   Clear
12:35 AM 53.6 °F 46.4 °F 77% 30.31 in 10.0 mi Calm Calm - N/A   Clear
12:55 AM 53.6 °F 46.4 °F 77% 30.31 in 10.0 mi Calm Calm - N/A   Clear
1:15 AM 53.6 °F 46.4 °F 77% 30.31 in 10.0 mi Calm Calm - N/A   Clear
1:35 AM 53.6 °F 46.4 °F 77% 30.31 in 10.0 mi Calm Calm - N/A   Clear
1:55 AM 53.6 °F 46.4 °F 77% 30.31 in 10.0 mi Calm Calm - N/A   Clear
2:15 AM 53.6 °F 48.2 °F 82% 30.31 in 10.0 mi Calm Calm - N/A   Clear
2:35 AM 51.8 °F 46.4 °F 82% 30.30 in 10.0 mi Calm Calm - N/A   Clear
2:55 AM 51.8 °F 46.4 °F 82% 30.30 in 10.0 mi Calm Calm - N/A   Clear
3:15 AM 51.8 °F 46.4 °F 82% 30.30 in 10.0 mi Calm Calm - N/A   Clear
3:35 AM 51.8 °F 46.4 °F 82% 30.30 in 10.0 mi Calm Calm - N/A   Clear
3:55 AM 50.0 °F 46.4 °F 87% 30.30 in 10.0 mi Calm Calm - N/A   Scattered Clouds
4:15 AM 50.0 °F 46.4 °F 87% 30.30 in 10.0 mi Calm Calm - N/A   Scattered Clouds
4:35 AM 50.0 °F 46.4 °F 87% 30.30 in 10.0 mi Calm Calm - N/A   Clear
4:55 AM 50.0 °F 46.4 °F 87% 30.30 in 10.0 mi Calm Calm - N/A   Scattered Clouds
5:15 AM 50.0 °F 46.4 °F 87% 30.30 in 10.0 mi Calm Calm - N/A   Clear
5:35 AM 50.0 °F 44.6 °F 82% 30.31 in 10.0 mi Calm Calm - N/A   Clear
5:55 AM 50.0 °F 44.6 °F 82% 30.31 in 10.0 mi Calm Calm - N/A   Clear
6:15 AM 50.0 °F 44.6 °F 82% 30.32 in 10.0 mi Calm Calm - N/A   Clear
6:35 AM 48.2 °F 44.6 °F 87% 30.33 in 10.0 mi Calm Calm - N/A   Clear
6:55 AM 50.0 °F 44.6 °F 82% 30.33 in 10.0 mi Calm Calm - N/A   Clear
7:15 AM 51.8 °F 46.4 °F 82% 30.34 in 10.0 mi Calm Calm - N/A   Clear
7:35 AM 51.8 °F 46.4 °F 82% 30.34 in 10.0 mi Calm Calm - N/A   Clear
7:55 AM 55.4 °F 48.2 °F 77% 30.34 in 10.0 mi Calm Calm - N/A   Clear
8:15 AM 60.8 °F 50.0 °F 68% 30.34 in 10.0 mi Calm Calm - N/A   Clear
8:35 AM 62.6 °F 50.0 °F 63% 30.34 in 10.0 mi Calm Calm - N/A   Scattered Clouds
8:55 AM 66.2 °F 50.0 °F 56% 30.35 in 10.0 mi Calm Calm - N/A   Scattered Clouds
9:15 AM 69.8 °F 51.8 °F 53% 30.35 in 10.0 mi East 3.5 mph - N/A   Scattered Clouds
9:35 AM 69.8 °F 51.8 °F 53% 30.35 in 10.0 mi ENE 4.6 mph - N/A   Clear
10:15 AM 69.8 °F 51.8 °F 53% 30.36 in 10.0 mi ENE 6.9 mph - N/A   Overcast
10:55 AM 69.8 °F 51.8 °F 53% 30.36 in 10.0 mi NE 10.4 mph - N/A   Mostly Cloudy
11:15 AM 69.8 °F 53.6 °F 56% 30.35 in 10.0 mi NNE 10.4 mph 23.0 mph N/A   Overcast
11:35 AM 69.8 °F 53.6 °F 56% 30.35 in 10.0 mi NE 6.9 mph - N/A   Overcast
11:55 AM 69.8 °F 53.6 °F 56% 30.35 in 10.0 mi NW 6.9 mph 16.1 mph N/A   Overcast
12:15 PM 64.4 °F 53.6 °F 68% 30.36 in 10.0 mi WSW 8.1 mph - N/A   Overcast
12:35 PM 66.2 °F 51.8 °F 60% 30.35 in 10.0 mi West 6.9 mph 17.3 mph N/A Rain Light Rain
12:55 PM 62.6 °F 55.4 °F 77% 30.36 in 2.5 mi NW 6.9 mph 16.1 mph 0.10 in Rain Heavy Rain
1:15 PM 60.8 °F 55.4 °F 82% 30.36 in 10.0 mi East 3.5 mph - 0.03 in   Overcast
1:35 PM 62.6 °F 55.4 °F 77% 30.36 in 10.0 mi Calm Calm - 0.03 in   Overcast
1:55 PM 62.6 °F 55.4 °F 77% 30.36 in 10.0 mi North 3.5 mph - 0.03 in   Overcast
2:15 PM 64.4 °F 55.4 °F 73% 30.36 in 10.0 mi West 8.1 mph - N/A Rain Light Rain
2:35 PM 64.4 °F 55.4 °F 73% 30.36 in 10.0 mi West 5.8 mph - N/A   Overcast
2:55 PM 64.4 °F 55.4 °F 73% 30.35 in 10.0 mi West 6.9 mph - N/A   Mostly Cloudy
3:15 PM 64.4 °F 55.4 °F 73% 30.35 in 10.0 mi West 5.8 mph - N/A   Overcast
3:35 PM 66.2 °F 55.4 °F 68% 30.34 in 10.0 mi West 3.5 mph - N/A   Overcast
3:55 PM 66.2 °F 55.4 °F 68% 30.34 in 10.0 mi West 3.5 mph - N/A   Overcast
4:15 PM 68.0 °F 57.2 °F 68% 30.34 in 10.0 mi Calm Calm - N/A   Overcast
4:35 PM 68.0 °F 55.4 °F 64% 30.34 in 10.0 mi Calm Calm - N/A   Mostly Cloudy
4:55 PM 68.0 °F 53.6 °F 60% 30.34 in 10.0 mi Calm Calm - N/A   Overcast
5:15 PM 68.0 °F 55.4 °F 64% 30.34 in 10.0 mi Calm Calm - N/A   Overcast
5:35 PM 68.0 °F 55.4 °F 64% 30.33 in 10.0 mi Calm Calm - N/A   Mostly Cloudy
5:55 PM 69.8 °F 53.6 °F 56% 30.33 in 10.0 mi Calm Calm - N/A   Clear
6:15 PM 69.8 °F 53.6 °F 56% 30.33 in 10.0 mi Calm Calm - N/A   Scattered Clouds
6:35 PM 69.8 °F 53.6 °F 56% 30.33 in 10.0 mi Calm Calm - N/A   Scattered Clouds
6:55 PM 68.0 °F 57.2 °F 68% 30.33 in 10.0 mi Calm Calm - N/A   Mostly Cloudy
7:15 PM 66.2 °F 57.2 °F 73% 30.34 in 10.0 mi Calm Calm - N/A   Scattered Clouds
7:35 PM 64.4 °F 55.4 °F 73% 30.35 in 10.0 mi Calm Calm - N/A   Scattered Clouds
7:55 PM 64.4 °F 55.4 °F 73% 30.35 in 10.0 mi Calm Calm - N/A   Scattered Clouds
8:15 PM 62.6 °F 57.2 °F 82% 30.36 in 10.0 mi Calm Calm - N/A   Scattered Clouds
8:35 PM 62.6 °F 57.2 °F 82% 30.36 in 10.0 mi Calm Calm - N/A   Mostly Cloudy
8:55 PM 60.8 °F 55.4 °F 82% 30.37 in 10.0 mi Calm Calm - N/A   Scattered Clouds
9:15 PM 60.8 °F 55.4 °F 82% 30.37 in 10.0 mi Calm Calm - N/A   Scattered Clouds
9:35 PM 59.0 °F 55.4 °F 88% 30.38 in 10.0 mi Calm Calm - N/A   Clear
9:55 PM 59.0 °F 55.4 °F 88% 30.38 in 10.0 mi Calm Calm - N/A   Clear
10:15 PM 57.2 °F 53.6 °F 88% 30.38 in 10.0 mi Calm Calm - N/A   Clear
10:35 PM 55.4 °F 53.6 °F 94% 30.39 in 10.0 mi Calm Calm - N/A   Clear
10:55 PM 55.4 °F 53.6 °F 94% 30.39 in 10.0 mi Calm Calm - N/A   Scattered Clouds
11:15 PM 55.4 °F 51.8 °F 88% 30.39 in 10.0 mi Calm Calm - N/A   Clear
11:35 PM 55.4 °F 51.8 °F 88% 30.38 in 10.0 mi Calm Calm - N/A   Scattered Clouds
11:55 PM 53.6 °F 51.8 °F 94% 30.38 in 10.0 mi Calm Calm - N/A   Scattered Clouds